Time,TemperatureF,DewpointF,PressureIn,WindDirection,WindDirectionDegrees,WindSpeedMPH,WindSpeedGustMPH,Humidity,HourlyPrecipIn,Conditions,Clouds,dailyrainin,SoftwareType,DateUTC
2013-08-07 00:01:00,71.8,63.0,29.89,South,188,6.0,7.0,74,0.00,,,0.00,meteohub,2013-08-07 04:01:00,
2013-08-07 00:02:00,71.8,63.0,29.89,South,190,6.0,7.0,74,0.00,,,0.00,meteohub,2013-08-07 04:02:00,
2013-08-07 00:07:00,71.8,63.0,29.88,South,179,2.0,8.0,74,0.00,,,0.00,meteohub,2013-08-07 04:07:00,
2013-08-07 00:12:00,72.0,62.8,29.88,SSE,157,7.0,9.0,73,0.00,,,0.00,meteohub,2013-08-07 04:12:00,
2013-08-07 00:17:00,72.1,63.0,29.88,South,178,5.0,9.0,73,0.00,,,0.00,meteohub,2013-08-07 04:17:00,
2013-08-07 00:23:00,72.1,62.6,29.88,South,170,5.0,12.0,72,0.00,,,0.00,meteohub,2013-08-07 04:23:00,
2013-08-07 00:28:00,72.3,62.8,29.88,South,175,5.0,12.0,72,0.00,,,0.00,meteohub,2013-08-07 04:28:00,
2013-08-07 00:33:00,72.3,63.1,29.88,South,174,4.0,10.0,73,0.00,,,0.00,meteohub,2013-08-07 04:33:00,
2013-08-07 00:38:00,72.3,62.8,29.88,South,190,3.0,10.0,72,0.00,,,0.00,meteohub,2013-08-07 04:38:00,
2013-08-07 00:43:00,72.5,63.0,29.88,South,173,3.0,9.0,72,0.00,,,0.00,meteohub,2013-08-07 04:43:00,
2013-08-07 00:48:00,72.7,62.8,29.88,South,173,5.0,9.0,71,0.00,,,0.00,meteohub,2013-08-07 04:48:00,
2013-08-07 00:53:00,72.7,62.8,29.88,SW,215,5.0,10.0,71,0.00,,,0.00,meteohub,2013-08-07 04:53:00,
2013-08-07 00:58:00,72.7,63.1,29.88,South,169,3.0,10.0,72,0.00,,,0.00,meteohub,2013-08-07 04:58:00,
2013-08-07 01:03:00,72.7,62.8,29.88,South,177,4.0,10.0,71,0.00,,,0.00,meteohub,2013-08-07 05:03:00,
2013-08-07 01:08:00,72.7,63.1,29.88,SSE,163,3.0,10.0,72,0.00,,,0.00,meteohub,2013-08-07 05:08:00,
2013-08-07 01:13:00,72.5,63.0,29.88,South,189,3.0,10.0,72,0.00,,,0.00,meteohub,2013-08-07 05:13:00,
2013-08-07 01:18:00,72.3,62.8,29.89,SSE,159,4.0,10.0,72,0.00,,,0.00,meteohub,2013-08-07 05:18:00,
2013-08-07 01:23:00,72.1,62.6,29.89,SSE,161,3.0,7.0,72,0.00,,,0.00,meteohub,2013-08-07 05:23:00,
2013-08-07 01:28:00,72.0,62.8,29.89,SSW,194,4.0,8.0,73,0.00,,,0.00,meteohub,2013-08-07 05:28:00,
2013-08-07 01:33:00,71.8,62.6,29.89,South,191,5.0,8.0,73,0.00,,,0.00,meteohub,2013-08-07 05:33:00,
2013-08-07 01:38:00,71.8,62.6,29.89,SSE,159,5.0,10.0,73,0.00,,,0.00,meteohub,2013-08-07 05:38:00,
2013-08-07 01:43:00,71.4,62.8,29.89,SE,143,1.0,10.0,74,0.00,,,0.00,meteohub,2013-08-07 05:43:00,
2013-08-07 01:48:00,71.2,63.0,29.89,South,169,3.0,10.0,75,0.00,,,0.00,meteohub,2013-08-07 05:48:00,
2013-08-07 01:54:00,71.1,63.1,29.89,South,178,4.0,10.0,76,0.00,,,0.00,meteohub,2013-08-07 05:54:00,
2013-08-07 01:59:00,71.1,63.5,29.89,South,184,4.0,10.0,77,0.00,,,0.00,meteohub,2013-08-07 05:59:00,
2013-08-07 02:04:00,70.9,63.7,29.89,SE,144,7.0,12.0,78,0.00,,,0.00,meteohub,2013-08-07 06:04:00,
2013-08-07 02:09:00,70.9,64.0,29.89,SSE,168,9.0,12.0,79,0.00,,,0.00,meteohub,2013-08-07 06:09:00,
2013-08-07 02:14:00,70.7,63.9,29.88,South,190,11.0,12.0,79,0.00,,,0.00,meteohub,2013-08-07 06:14:00,
2013-08-07 02:19:00,70.7,64.2,29.89,South,173,5.0,14.0,80,0.00,,,0.00,meteohub,2013-08-07 06:19:00,
2013-08-07 02:24:00,70.5,64.0,29.88,South,179,11.0,14.0,80,0.00,,,0.00,meteohub,2013-08-07 06:24:00,
2013-08-07 02:29:00,70.5,64.4,29.88,South,175,6.0,14.0,81,0.00,,,0.00,meteohub,2013-08-07 06:29:00,
2013-08-07 02:34:00,70.3,64.2,29.88,South,179,10.0,14.0,81,0.00,,,0.00,meteohub,2013-08-07 06:34:00,
2013-08-07 02:39:00,70.3,64.6,29.88,South,191,11.0,14.0,82,0.00,,,0.00,meteohub,2013-08-07 06:39:00,
2013-08-07 02:44:00,70.3,64.6,29.88,South,185,7.0,15.0,82,0.00,,,0.00,meteohub,2013-08-07 06:44:00,
2013-08-07 02:49:00,70.3,64.6,29.88,SSW,196,11.0,15.0,82,0.00,,,0.00,meteohub,2013-08-07 06:49:00,
2013-08-07 02:54:00,70.2,64.8,29.89,South,186,9.0,14.0,83,0.00,,,0.00,meteohub,2013-08-07 06:54:00,
2013-08-07 02:59:00,70.2,64.8,29.89,South,178,5.0,14.0,83,0.00,,,0.00,meteohub,2013-08-07 06:59:00,
2013-08-07 03:04:00,70.0,64.6,29.89,SSW,200,16.0,18.0,83,0.00,,,0.00,meteohub,2013-08-07 07:04:00,
2013-08-07 03:09:00,70.0,64.9,29.89,South,190,14.0,18.0,84,0.00,,,0.00,meteohub,2013-08-07 07:09:00,
2013-08-07 03:14:00,69.6,64.6,29.89,SSE,165,10.0,18.0,84,0.00,,,0.00,meteohub,2013-08-07 07:14:00,
2013-08-07 03:19:00,69.4,64.4,29.89,South,190,14.0,19.0,84,0.00,,,0.00,meteohub,2013-08-07 07:19:00,
2013-08-07 03:24:00,69.4,64.8,29.89,SSE,159,11.0,19.0,85,0.00,,,0.00,meteohub,2013-08-07 07:24:00,
2013-08-07 03:29:00,69.3,64.6,29.89,South,171,5.0,15.0,85,0.00,,,0.00,meteohub,2013-08-07 07:29:00,
2013-08-07 03:35:00,69.3,64.6,29.89,South,173,14.0,15.0,85,0.00,,,0.00,meteohub,2013-08-07 07:35:00,
2013-08-07 03:40:00,69.1,64.4,29.89,South,191,9.0,15.0,85,0.00,,,0.00,meteohub,2013-08-07 07:40:00,
2013-08-07 03:45:00,69.1,64.4,29.89,SSE,149,8.0,16.0,85,0.00,,,0.00,meteohub,2013-08-07 07:45:00,
2013-08-07 03:50:00,69.1,64.4,29.89,SSW,200,6.0,16.0,85,0.00,,,0.00,meteohub,2013-08-07 07:50:00,
2013-08-07 03:55:00,69.1,64.8,29.89,SSW,211,7.0,16.0,86,0.00,,,0.00,meteohub,2013-08-07 07:55:00,
2013-08-07 04:00:00,69.1,64.8,29.89,South,184,17.0,17.0,86,0.00,,,0.00,meteohub,2013-08-07 08:00:00,
2013-08-07 04:05:00,68.9,64.6,29.89,South,173,10.0,17.0,86,0.00,,,0.00,meteohub,2013-08-07 08:05:00,
2013-08-07 04:10:00,68.9,64.6,29.89,SSE,160,12.0,17.0,86,0.00,,,0.00,meteohub,2013-08-07 08:10:00,
2013-08-07 04:15:00,68.7,64.4,29.88,South,181,9.0,17.0,86,0.00,,,0.00,meteohub,2013-08-07 08:15:00,
2013-08-07 04:20:00,68.7,64.4,29.88,SSW,193,10.0,16.0,86,0.00,,,0.00,meteohub,2013-08-07 08:20:00,
2013-08-07 04:25:00,68.7,64.4,29.88,SSE,165,6.0,21.0,86,0.00,,,0.00,meteohub,2013-08-07 08:25:00,
2013-08-07 04:30:00,68.7,64.4,29.88,South,187,13.0,21.0,86,0.00,,,0.00,meteohub,2013-08-07 08:30:00,
2013-08-07 04:35:00,68.7,64.4,29.88,South,174,10.0,21.0,86,0.00,,,0.00,meteohub,2013-08-07 08:35:00,
2013-08-07 04:40:00,68.7,64.8,29.88,South,188,15.0,17.0,87,0.00,,,0.00,meteohub,2013-08-07 08:40:00,
2013-08-07 04:45:00,68.5,64.6,29.88,SSW,211,11.0,19.0,87,0.00,,,0.00,meteohub,2013-08-07 08:45:00,
2013-08-07 04:50:00,68.5,64.6,29.88,SSW,196,11.0,19.0,87,0.00,,,0.00,meteohub,2013-08-07 08:50:00,
2013-08-07 04:55:00,68.5,64.6,29.88,SSW,192,20.0,20.0,87,0.00,,,0.00,meteohub,2013-08-07 08:55:00,
2013-08-07 05:00:00,68.4,64.4,29.87,South,190,9.0,20.0,87,0.00,,,0.00,meteohub,2013-08-07 09:00:00,
2013-08-07 05:05:00,68.4,64.4,29.88,South,177,9.0,20.0,87,0.00,,,0.00,meteohub,2013-08-07 09:05:00,
2013-08-07 05:10:00,68.2,64.4,29.87,South,183,10.0,20.0,88,0.00,,,0.00,meteohub,2013-08-07 09:10:00,
2013-08-07 05:15:00,68.2,64.4,29.88,SSE,167,7.0,18.0,88,0.00,,,0.00,meteohub,2013-08-07 09:15:00,
2013-08-07 05:20:00,68.2,64.4,29.87,SSE,164,5.0,17.0,88,0.00,,,0.00,meteohub,2013-08-07 09:20:00,
2013-08-07 05:26:00,68.2,64.4,29.88,SSE,168,13.0,17.0,88,0.00,,,0.00,meteohub,2013-08-07 09:26:00,
2013-08-07 05:31:00,68.2,64.4,29.87,South,183,13.0,18.0,88,0.00,,,0.00,meteohub,2013-08-07 09:31:00,
2013-08-07 05:36:00,68.2,64.8,29.87,SSE,168,12.0,19.0,89,0.00,,,0.00,meteohub,2013-08-07 09:36:00,
2013-08-07 05:41:00,68.0,64.4,29.87,South,175,12.0,20.0,88,0.00,,,0.00,meteohub,2013-08-07 09:41:00,
2013-08-07 05:46:00,68.0,64.4,29.87,SSE,159,10.0,20.0,88,0.00,,,0.00,meteohub,2013-08-07 09:46:00,
2013-08-07 05:51:00,68.0,64.6,29.87,South,177,11.0,21.0,89,0.00,,,0.00,meteohub,2013-08-07 09:51:00,
2013-08-07 05:56:00,68.0,64.6,29.87,SE,137,6.0,21.0,89,0.00,,,0.00,meteohub,2013-08-07 09:56:00,
2013-08-07 06:01:00,68.0,64.6,29.86,South,183,10.0,19.0,89,0.00,,,0.00,meteohub,2013-08-07 10:01:00,
2013-08-07 06:06:00,67.8,64.4,29.86,South,182,8.0,17.0,89,0.00,,,0.00,meteohub,2013-08-07 10:06:00,
2013-08-07 06:11:00,68.0,64.6,29.86,South,188,13.0,14.0,89,0.00,,,0.00,meteohub,2013-08-07 10:11:00,
2013-08-07 06:16:00,68.0,64.6,29.86,South,178,8.0,19.0,89,0.00,,,0.00,meteohub,2013-08-07 10:16:00,
2013-08-07 06:21:00,68.0,64.6,29.86,South,186,10.0,19.0,89,0.00,,,0.00,meteohub,2013-08-07 10:21:00,
2013-08-07 06:26:00,67.8,64.4,29.86,South,171,6.0,19.0,89,0.00,,,0.00,meteohub,2013-08-07 10:26:00,
2013-08-07 06:31:00,67.8,64.4,29.86,South,173,9.0,19.0,89,0.00,,,0.00,meteohub,2013-08-07 10:31:00,
2013-08-07 06:36:00,67.8,64.4,29.86,SSE,167,15.0,21.0,89,0.00,,,0.00,meteohub,2013-08-07 10:36:00,
2013-08-07 06:41:00,67.8,64.4,29.87,SSE,157,11.0,21.0,89,0.00,,,0.00,meteohub,2013-08-07 10:41:00,
2013-08-07 06:46:00,67.8,64.8,29.87,SSE,164,9.0,21.0,90,0.00,,,0.00,meteohub,2013-08-07 10:46:00,
2013-08-07 06:51:00,67.8,64.8,29.87,South,184,10.0,20.0,90,0.00,,,0.00,meteohub,2013-08-07 10:51:00,
2013-08-07 06:57:00,67.8,64.8,29.88,SSW,201,10.0,19.0,90,0.00,,,0.00,meteohub,2013-08-07 10:57:00,
2013-08-07 07:02:00,68.0,64.9,29.88,South,186,13.0,18.0,90,0.00,,,0.00,meteohub,2013-08-07 11:02:00,
2013-08-07 07:07:00,68.2,65.1,29.87,South,188,16.0,21.0,90,0.00,,,0.00,meteohub,2013-08-07 11:07:00,
2013-08-07 07:12:00,68.4,65.3,29.87,SSE,163,7.0,22.0,90,0.00,,,0.00,meteohub,2013-08-07 11:12:00,
2013-08-07 07:17:00,68.4,65.3,29.87,SSE,165,9.0,22.0,90,0.00,,,0.00,meteohub,2013-08-07 11:17:00,
2013-08-07 07:22:00,68.4,64.9,29.87,South,175,13.0,22.0,89,0.00,,,0.00,meteohub,2013-08-07 11:22:00,
2013-08-07 07:27:00,68.4,65.3,29.87,South,179,14.0,21.0,90,0.00,,,0.00,meteohub,2013-08-07 11:27:00,
2013-08-07 07:32:00,68.5,65.1,29.88,South,183,12.0,21.0,89,0.00,,,0.00,meteohub,2013-08-07 11:32:00,
2013-08-07 07:37:00,68.5,65.1,29.87,South,171,10.0,20.0,89,0.00,,,0.00,meteohub,2013-08-07 11:37:00,
2013-08-07 07:42:00,68.7,65.3,29.87,South,173,12.0,17.0,89,0.00,,,0.00,meteohub,2013-08-07 11:42:00,
2013-08-07 07:47:00,68.9,65.5,29.87,SSE,159,11.0,18.0,89,0.00,,,0.00,meteohub,2013-08-07 11:47:00,
2013-08-07 07:52:00,69.1,65.3,29.87,South,169,10.0,19.0,88,0.00,,,0.00,meteohub,2013-08-07 11:52:00,
2013-08-07 07:57:00,69.3,65.5,29.87,South,191,20.0,20.0,88,0.00,,,0.00,meteohub,2013-08-07 11:57:00,
2013-08-07 08:02:00,69.4,65.7,29.87,South,178,13.0,21.0,88,0.00,,,0.00,meteohub,2013-08-07 12:02:00,
2013-08-07 08:07:00,69.6,65.8,29.87,South,171,11.0,21.0,88,0.00,,,0.00,meteohub,2013-08-07 12:07:00,
2013-08-07 08:12:00,70.0,66.0,29.87,SSW,201,13.0,21.0,87,0.00,,,0.00,meteohub,2013-08-07 12:12:00,
2013-08-07 08:17:00,70.0,66.0,29.87,South,171,13.0,20.0,87,0.00,,,0.00,meteohub,2013-08-07 12:17:00,
2013-08-07 08:22:00,70.2,66.0,29.88,SSE,163,16.0,20.0,87,0.00,,,0.00,meteohub,2013-08-07 12:22:00,
2013-08-07 08:27:00,70.3,66.2,29.88,South,175,8.0,20.0,87,0.00,,,0.00,meteohub,2013-08-07 12:27:00,
2013-08-07 08:32:00,70.2,66.0,29.88,SSW,201,6.0,20.0,87,0.00,,,0.00,meteohub,2013-08-07 12:32:00,
2013-08-07 08:37:00,70.3,66.2,29.88,SSE,166,10.0,21.0,87,0.00,,,0.00,meteohub,2013-08-07 12:37:00,
2013-08-07 08:42:00,70.9,66.6,29.88,SSE,155,13.0,21.0,86,0.00,,,0.00,meteohub,2013-08-07 12:42:00,
2013-08-07 08:47:00,71.1,66.7,29.88,South,185,11.0,17.0,86,0.00,,,0.00,meteohub,2013-08-07 12:47:00,
2013-08-07 08:52:00,71.4,66.7,29.88,SSW,212,11.0,16.0,85,0.00,,,0.00,meteohub,2013-08-07 12:52:00,
2013-08-07 08:57:00,71.8,67.1,29.88,SSW,209,12.0,17.0,85,0.00,,,0.00,meteohub,2013-08-07 12:57:00,
2013-08-07 09:02:00,72.0,66.9,29.88,SSW,195,7.0,17.0,84,0.00,,,0.00,meteohub,2013-08-07 13:02:00,
2013-08-07 09:07:00,72.3,67.3,29.87,SSE,164,10.0,17.0,84,0.00,,,0.00,meteohub,2013-08-07 13:07:00,
2013-08-07 09:12:00,72.5,67.5,29.87,South,169,11.0,22.0,84,0.00,,,0.00,meteohub,2013-08-07 13:12:00,
2013-08-07 09:17:00,72.7,67.3,29.87,SSW,199,12.0,22.0,83,0.00,,,0.00,meteohub,2013-08-07 13:17:00,
2013-08-07 09:22:00,73.0,67.6,29.86,South,188,8.0,22.0,83,0.00,,,0.00,meteohub,2013-08-07 13:22:00,
2013-08-07 09:27:00,73.2,67.5,29.86,SSW,202,12.0,20.0,82,0.00,,,0.00,meteohub,2013-08-07 13:27:00,
2013-08-07 09:32:00,73.8,68.0,29.86,SSW,200,13.0,20.0,82,0.00,,,0.00,meteohub,2013-08-07 13:32:00,
2013-08-07 09:37:00,74.1,68.0,29.86,SSE,157,10.0,20.0,81,0.00,,,0.00,meteohub,2013-08-07 13:37:00,
2013-08-07 09:42:00,74.5,68.2,29.86,South,180,9.0,19.0,81,0.00,,,0.00,meteohub,2013-08-07 13:42:00,
2013-08-07 09:47:00,74.7,68.0,29.86,South,188,11.0,17.0,80,0.00,,,0.00,meteohub,2013-08-07 13:47:00,
2013-08-07 09:52:00,74.8,68.2,29.86,South,177,9.0,20.0,80,0.00,,,0.00,meteohub,2013-08-07 13:52:00,
2013-08-07 09:57:00,75.2,68.2,29.86,SSW,203,8.0,20.0,79,0.00,,,0.00,meteohub,2013-08-07 13:57:00,
2013-08-07 10:02:00,75.6,68.5,29.86,SSW,205,7.0,20.0,79,0.00,,,0.00,meteohub,2013-08-07 14:02:00,
2013-08-07 10:07:00,75.7,68.4,29.86,South,189,4.0,16.0,78,0.00,,,0.00,meteohub,2013-08-07 14:07:00,
2013-08-07 10:12:00,75.9,68.5,29.86,SW,236,8.0,16.0,78,0.00,,,0.00,meteohub,2013-08-07 14:12:00,
2013-08-07 10:17:00,76.1,68.7,29.86,SSW,209,7.0,17.0,78,0.00,,,0.00,meteohub,2013-08-07 14:17:00,
2013-08-07 10:22:00,76.3,68.9,29.86,South,174,8.0,17.0,78,0.00,,,0.00,meteohub,2013-08-07 14:22:00,
2013-08-07 10:27:00,76.3,68.5,29.86,SSW,194,16.0,17.0,77,0.00,,,0.00,meteohub,2013-08-07 14:27:00,
2013-08-07 10:32:00,76.5,68.7,29.86,SSW,192,11.0,24.0,77,0.00,,,0.00,meteohub,2013-08-07 14:32:00,
2013-08-07 10:37:00,76.6,68.9,29.86,SSW,196,9.0,24.0,77,0.00,,,0.00,meteohub,2013-08-07 14:37:00,
2013-08-07 10:42:00,77.0,68.9,29.86,SW,218,14.0,22.0,76,0.00,,,0.00,meteohub,2013-08-07 14:42:00,
2013-08-07 10:47:00,77.2,69.1,29.86,South,183,8.0,19.0,76,0.00,,,0.00,meteohub,2013-08-07 14:47:00,
2013-08-07 10:52:00,77.4,68.9,29.85,SSE,152,8.0,21.0,75,0.00,,,0.00,meteohub,2013-08-07 14:52:00,
2013-08-07 10:57:00,77.7,69.1,29.85,SW,220,11.0,21.0,75,0.00,,,0.00,meteohub,2013-08-07 14:57:00,
2013-08-07 11:02:00,77.9,68.9,29.86,SW,219,12.0,18.0,74,0.00,,,0.00,meteohub,2013-08-07 15:02:00,
2013-08-07 11:08:00,78.1,69.1,29.85,SSW,200,4.0,21.0,74,0.00,,,0.00,meteohub,2013-08-07 15:08:00,
2013-08-07 11:13:00,78.3,69.6,29.86,SSW,206,16.0,21.0,75,0.00,,,0.00,meteohub,2013-08-07 15:13:00,
2013-08-07 11:18:00,78.4,69.8,29.86,SW,229,10.0,21.0,75,0.00,,,0.00,meteohub,2013-08-07 15:18:00,
2013-08-07 11:23:00,78.6,70.0,29.86,South,175,11.0,20.0,75,0.00,,,0.00,meteohub,2013-08-07 15:23:00,
2013-08-07 11:28:00,78.6,70.0,29.85,SSW,202,11.0,19.0,75,0.00,,,0.00,meteohub,2013-08-07 15:28:00,
2013-08-07 11:33:00,79.0,70.3,29.85,South,178,11.0,19.0,75,0.00,,,0.00,meteohub,2013-08-07 15:33:00,
2013-08-07 11:38:00,79.2,70.5,29.85,SW,214,10.0,19.0,75,0.00,,,0.00,meteohub,2013-08-07 15:38:00,
2013-08-07 11:43:00,79.2,70.5,29.85,South,188,11.0,18.0,75,0.00,,,0.00,meteohub,2013-08-07 15:43:00,
2013-08-07 11:48:00,79.2,70.5,29.85,WSW,239,9.0,21.0,75,0.00,,,0.00,meteohub,2013-08-07 15:48:00,
2013-08-07 11:54:00,79.2,70.5,29.85,SW,222,16.0,24.0,75,0.00,,,0.00,meteohub,2013-08-07 15:54:00,
2013-08-07 11:59:00,79.3,70.7,29.85,South,181,11.0,24.0,75,0.00,,,0.00,meteohub,2013-08-07 15:59:00,
2013-08-07 12:04:00,79.3,71.1,29.85,SSW,209,14.0,24.0,76,0.00,,,0.00,meteohub,2013-08-07 16:04:00,
2013-08-07 12:09:00,79.5,70.9,29.85,WSW,239,12.0,21.0,75,0.00,,,0.00,meteohub,2013-08-07 16:09:00,
2013-08-07 12:14:00,79.7,71.1,29.85,SSW,208,10.0,21.0,75,0.00,,,0.00,meteohub,2013-08-07 16:14:00,
2013-08-07 12:19:00,80.1,71.4,29.85,South,190,15.0,24.0,75,0.00,,,0.00,meteohub,2013-08-07 16:19:00,
2013-08-07 12:24:00,80.1,71.1,29.84,SW,227,15.0,24.0,74,0.00,,,0.00,meteohub,2013-08-07 16:24:00,
2013-08-07 12:29:00,80.2,71.2,29.84,WSW,250,13.0,24.0,74,0.00,,,0.00,meteohub,2013-08-07 16:29:00,
2013-08-07 12:34:00,80.2,71.6,29.83,SSW,213,13.0,22.0,75,0.00,,,0.00,meteohub,2013-08-07 16:34:00,
2013-08-07 12:39:00,80.6,71.6,29.83,SW,228,17.0,24.0,74,0.00,,,0.00,meteohub,2013-08-07 16:39:00,
2013-08-07 12:44:00,80.8,72.1,29.84,SSW,211,11.0,24.0,75,0.00,,,0.00,meteohub,2013-08-07 16:44:00,
2013-08-07 12:50:00,80.8,71.8,29.83,South,180,13.0,24.0,74,0.00,,,0.00,meteohub,2013-08-07 16:50:00,
2013-08-07 12:55:00,80.8,71.8,29.83,SSW,208,6.0,21.0,74,0.00,,,0.00,meteohub,2013-08-07 16:55:00,
2013-08-07 13:00:00,80.6,72.0,29.84,SSW,205,13.0,25.0,75,0.00,,,0.00,meteohub,2013-08-07 17:00:00,
2013-08-07 13:05:00,80.6,72.0,29.83,SW,236,13.0,25.0,75,0.00,,,0.00,meteohub,2013-08-07 17:05:00,
2013-08-07 13:10:00,80.4,71.8,29.84,WSW,248,12.0,18.0,75,0.00,,,0.00,meteohub,2013-08-07 17:10:00,
2013-08-07 13:15:00,80.1,71.8,29.85,WSW,246,9.0,18.0,76,0.00,,,0.00,meteohub,2013-08-07 17:15:00,
2013-08-07 13:20:00,79.5,72.1,29.85,SW,232,14.0,18.0,78,0.00,,,0.00,meteohub,2013-08-07 17:20:00,
2013-08-07 13:25:00,79.0,72.0,29.85,WSW,239,11.0,18.0,79,0.00,,,0.00,meteohub,2013-08-07 17:25:00,
2013-08-07 13:30:00,78.6,72.0,29.86,SW,227,10.0,18.0,80,0.00,,,0.00,meteohub,2013-08-07 17:30:00,
2013-08-07 13:35:00,78.4,72.1,29.86,SW,228,6.0,18.0,81,0.00,,,0.00,meteohub,2013-08-07 17:35:00,
2013-08-07 13:38:00,78.3,72.0,29.85,SW,222,6.0,18.0,81,0.00,,,0.00,meteohub,2013-08-07 17:38:00,
2013-08-07 13:43:00,78.1,71.8,29.85,WSW,242,10.0,15.0,81,0.00,,,0.00,meteohub,2013-08-07 17:43:00,
2013-08-07 13:48:00,78.1,72.1,29.85,WSW,248,10.0,13.0,82,0.00,,,0.00,meteohub,2013-08-07 17:48:00,
2013-08-07 13:53:00,77.5,72.0,29.85,West,264,4.0,11.0,83,0.00,,,0.00,meteohub,2013-08-07 17:53:00,
2013-08-07 13:58:00,77.4,72.5,29.84,WSW,241,5.0,11.0,85,0.00,,,0.00,meteohub,2013-08-07 17:58:00,
2013-08-07 14:03:00,77.4,72.5,29.84,WSW,248,2.0,11.0,85,0.00,,,0.00,meteohub,2013-08-07 18:03:00,
2013-08-07 14:08:00,77.4,72.5,29.84,SW,218,5.0,9.0,85,0.00,,,0.00,meteohub,2013-08-07 18:08:00,
2013-08-07 14:13:00,77.4,72.5,29.84,SW,217,5.0,7.0,85,0.00,,,0.00,meteohub,2013-08-07 18:13:00,
2013-08-07 14:18:00,77.5,72.7,29.84,SW,232,7.0,11.0,85,0.00,,,0.00,meteohub,2013-08-07 18:18:00,
2013-08-07 14:23:00,77.9,72.7,29.84,SSW,202,9.0,12.0,84,0.00,,,0.00,meteohub,2013-08-07 18:23:00,
2013-08-07 14:29:00,78.3,73.0,29.83,SSW,198,6.0,13.0,84,0.00,,,0.00,meteohub,2013-08-07 18:29:00,
2013-08-07 14:33:00,78.4,72.9,29.83,SSW,202,12.0,13.0,83,0.00,,,0.00,meteohub,2013-08-07 18:33:00,
2013-08-07 14:39:00,78.4,72.9,29.83,SSW,207,17.0,19.0,83,0.00,,,0.00,meteohub,2013-08-07 18:39:00,
2013-08-07 14:44:00,78.6,73.0,29.83,SW,226,7.0,19.0,83,0.00,,,0.00,meteohub,2013-08-07 18:44:00,
2013-08-07 14:49:00,78.6,72.7,29.83,SW,223,17.0,19.0,82,0.00,,,0.00,meteohub,2013-08-07 18:49:00,
2013-08-07 14:54:00,78.4,72.5,29.83,SSW,206,14.0,24.0,82,0.00,,,0.00,meteohub,2013-08-07 18:54:00,
2013-08-07 14:59:00,78.6,73.0,29.83,SW,225,9.0,24.0,83,0.00,,,0.00,meteohub,2013-08-07 18:59:00,
2013-08-07 15:04:00,79.0,73.0,29.83,SSE,157,6.0,24.0,82,0.00,,,0.00,meteohub,2013-08-07 19:04:00,
2013-08-07 15:09:00,78.6,72.3,29.83,SSW,202,11.0,22.0,81,0.00,,,0.00,meteohub,2013-08-07 19:09:00,
2013-08-07 15:14:00,78.6,72.7,29.83,SW,234,7.0,21.0,82,0.00,,,0.00,meteohub,2013-08-07 19:14:00,
2013-08-07 15:19:00,78.6,72.7,29.83,SW,235,19.0,23.0,82,0.00,,,0.00,meteohub,2013-08-07 19:19:00,
2013-08-07 15:24:00,78.6,73.0,29.83,SW,215,13.0,23.0,83,0.00,,,0.00,meteohub,2013-08-07 19:24:00,
2013-08-07 15:29:00,78.6,72.7,29.83,SSW,211,14.0,22.0,82,0.00,,,0.00,meteohub,2013-08-07 19:29:00,
2013-08-07 15:34:00,78.6,73.0,29.83,WSW,240,18.0,23.0,83,0.00,,,0.00,meteohub,2013-08-07 19:34:00,
2013-08-07 15:39:00,78.4,72.9,29.82,SSW,198,17.0,23.0,83,0.00,,,0.00,meteohub,2013-08-07 19:39:00,
2013-08-07 15:45:00,78.4,72.9,29.82,SSW,211,5.0,24.0,83,0.00,,,0.00,meteohub,2013-08-07 19:45:00,
2013-08-07 15:50:00,78.6,73.0,29.81,South,180,7.0,25.0,83,0.00,,,0.00,meteohub,2013-08-07 19:50:00,
2013-08-07 15:55:00,79.0,73.0,29.80,South,190,15.0,25.0,82,0.00,,,0.00,meteohub,2013-08-07 19:55:00,
2013-08-07 16:00:00,79.3,73.4,29.80,WSW,243,6.0,24.0,82,0.00,,,0.00,meteohub,2013-08-07 20:00:00,
2013-08-07 16:05:00,79.7,73.4,29.80,SSW,205,6.0,24.0,81,0.00,,,0.00,meteohub,2013-08-07 20:05:00,
2013-08-07 16:10:00,80.1,73.4,29.80,SSW,200,13.0,24.0,80,0.00,,,0.00,meteohub,2013-08-07 20:10:00,
2013-08-07 16:15:00,79.9,73.2,29.80,WSW,237,11.0,21.0,80,0.00,,,0.00,meteohub,2013-08-07 20:15:00,
2013-08-07 16:20:00,79.9,73.6,29.79,WSW,248,6.0,21.0,81,0.00,,,0.00,meteohub,2013-08-07 20:20:00,
2013-08-07 16:25:00,79.9,73.6,29.79,WSW,238,14.0,21.0,81,0.00,,,0.00,meteohub,2013-08-07 20:25:00,
2013-08-07 16:30:00,80.2,73.0,29.79,SW,217,16.0,17.0,79,0.00,,,0.00,meteohub,2013-08-07 20:30:00,
2013-08-07 16:35:00,80.1,72.5,29.79,SSW,194,9.0,24.0,78,0.00,,,0.00,meteohub,2013-08-07 20:35:00,
2013-08-07 16:40:00,79.5,72.5,29.79,SSW,212,10.0,24.0,79,0.00,,,0.00,meteohub,2013-08-07 20:40:00,
2013-08-07 16:45:00,79.0,72.3,29.80,South,169,9.0,24.0,80,0.00,,,0.00,meteohub,2013-08-07 20:45:00,
2013-08-07 16:50:00,79.2,72.5,29.81,SSW,213,7.0,19.0,80,0.00,,,0.00,meteohub,2013-08-07 20:50:00,
2013-08-07 16:55:00,78.8,72.1,29.81,SW,234,19.0,19.0,80,0.00,,,0.00,meteohub,2013-08-07 20:55:00,
2013-08-07 17:00:00,78.6,72.3,29.82,WSW,246,15.0,19.0,81,0.00,,,0.00,meteohub,2013-08-07 21:00:00,
2013-08-07 17:05:00,78.4,71.8,29.82,SW,226,20.0,20.0,80,0.00,,,0.00,meteohub,2013-08-07 21:05:00,
2013-08-07 17:10:00,78.3,71.6,29.81,SW,232,12.0,20.0,80,0.00,,,0.00,meteohub,2013-08-07 21:10:00,
2013-08-07 17:15:00,78.1,71.4,29.81,SW,228,10.0,20.0,80,0.00,,,0.00,meteohub,2013-08-07 21:15:00,
2013-08-07 17:20:00,78.3,72.0,29.81,SSW,194,9.0,20.0,81,0.00,,,0.00,meteohub,2013-08-07 21:20:00,
2013-08-07 17:25:00,78.4,71.8,29.80,South,169,12.0,20.0,80,0.00,,,0.00,meteohub,2013-08-07 21:25:00,
2013-08-07 17:31:00,78.8,71.8,29.80,SSW,209,6.0,16.0,79,0.00,,,0.00,meteohub,2013-08-07 21:31:00,
2013-08-07 17:35:00,79.2,72.1,29.80,South,189,10.0,20.0,79,0.00,,,0.00,meteohub,2013-08-07 21:35:00,
2013-08-07 17:41:00,79.3,72.0,29.80,SW,225,5.0,20.0,78,0.00,,,0.00,meteohub,2013-08-07 21:41:00,
2013-08-07 17:46:00,79.5,72.1,29.80,SSW,206,10.0,20.0,78,0.00,,,0.00,meteohub,2013-08-07 21:46:00,
2013-08-07 17:51:00,79.3,72.0,29.80,SSW,200,4.0,16.0,78,0.00,,,0.00,meteohub,2013-08-07 21:51:00,
2013-08-07 17:56:00,79.2,70.9,29.80,SW,214,14.0,18.0,76,0.00,,,0.00,meteohub,2013-08-07 21:56:00,
2013-08-07 18:01:00,79.3,70.7,29.80,SSW,201,10.0,18.0,75,0.00,,,0.00,meteohub,2013-08-07 22:01:00,
2013-08-07 18:06:00,79.3,70.3,29.80,WSW,244,10.0,16.0,74,0.00,,,0.00,meteohub,2013-08-07 22:06:00,
2013-08-07 18:11:00,79.2,70.2,29.80,SW,223,11.0,17.0,74,0.00,,,0.00,meteohub,2013-08-07 22:11:00,
2013-08-07 18:16:00,79.2,70.5,29.80,SW,224,9.0,17.0,75,0.00,,,0.00,meteohub,2013-08-07 22:16:00,
2013-08-07 18:21:00,79.3,70.7,29.80,SW,227,11.0,18.0,75,0.00,,,0.00,meteohub,2013-08-07 22:21:00,
2013-08-07 18:26:00,79.2,70.5,29.80,WSW,237,16.0,18.0,75,0.00,,,0.00,meteohub,2013-08-07 22:26:00,
2013-08-07 18:31:00,79.2,70.5,29.80,SW,223,11.0,18.0,75,0.00,,,0.00,meteohub,2013-08-07 22:31:00,
2013-08-07 18:36:00,79.2,70.5,29.80,SW,230,10.0,17.0,75,0.00,,,0.00,meteohub,2013-08-07 22:36:00,
2013-08-07 18:41:00,79.3,70.3,29.80,WSW,238,12.0,17.0,74,0.00,,,0.00,meteohub,2013-08-07 22:41:00,
2013-08-07 18:46:00,79.3,70.7,29.80,WSW,240,12.0,18.0,75,0.00,,,0.00,meteohub,2013-08-07 22:46:00,
2013-08-07 18:51:00,79.5,70.9,29.80,SW,236,9.0,18.0,75,0.00,,,0.00,meteohub,2013-08-07 22:51:00,
2013-08-07 18:56:00,79.5,70.9,29.80,SW,236,9.0,18.0,75,0.00,,,0.00,meteohub,2013-08-07 22:56:00,
2013-08-07 19:01:00,79.5,70.5,29.80,SW,231,7.0,14.0,74,0.00,,,0.00,meteohub,2013-08-07 23:01:00,
2013-08-07 19:06:00,79.5,70.9,29.80,SW,217,10.0,13.0,75,0.00,,,0.00,meteohub,2013-08-07 23:06:00,
2013-08-07 19:11:00,79.5,71.2,29.80,SW,221,6.0,13.0,76,0.00,,,0.00,meteohub,2013-08-07 23:11:00,
2013-08-07 19:16:00,79.5,70.9,29.80,SW,225,9.0,13.0,75,0.00,,,0.00,meteohub,2013-08-07 23:16:00,
2013-08-07 19:21:00,79.5,70.9,29.81,SSW,194,11.0,12.0,75,0.00,,,0.00,meteohub,2013-08-07 23:21:00,
2013-08-07 19:27:00,79.9,70.9,29.81,SW,218,10.0,12.0,74,0.00,,,0.00,meteohub,2013-08-07 23:27:00,
2013-08-07 19:32:00,79.9,70.5,29.81,SW,227,7.0,14.0,73,0.00,,,0.00,meteohub,2013-08-07 23:32:00,
2013-08-07 19:37:00,79.9,70.5,29.81,SSE,167,10.0,14.0,73,0.00,,,0.00,meteohub,2013-08-07 23:37:00,
2013-08-07 19:42:00,79.9,70.5,29.81,SSW,203,9.0,14.0,73,0.00,,,0.00,meteohub,2013-08-07 23:42:00,
2013-08-07 19:47:00,79.5,70.9,29.82,SW,225,12.0,13.0,75,0.00,,,0.00,meteohub,2013-08-07 23:47:00,
2013-08-07 19:52:00,79.3,71.1,29.82,SSW,194,7.0,16.0,76,0.00,,,0.00,meteohub,2013-08-07 23:52:00,
2013-08-07 19:57:00,79.0,71.1,29.82,South,187,7.0,16.0,77,0.00,,,0.00,meteohub,2013-08-07 23:57:00,
2013-08-07 20:02:00,78.6,71.2,29.82,SSW,194,5.0,16.0,78,0.00,,,0.00,meteohub,2013-08-08 00:02:00,
2013-08-07 20:07:00,78.3,71.2,29.82,South,182,8.0,15.0,79,0.00,,,0.00,meteohub,2013-08-08 00:07:00,
2013-08-07 20:12:00,77.9,70.9,29.82,South,190,13.0,15.0,79,0.00,,,0.00,meteohub,2013-08-08 00:12:00,
2013-08-07 20:17:00,77.5,70.9,29.82,South,182,9.0,17.0,80,0.00,,,0.00,meteohub,2013-08-08 00:17:00,
2013-08-07 20:22:00,77.2,70.5,29.82,South,183,14.0,17.0,80,0.00,,,0.00,meteohub,2013-08-08 00:22:00,
2013-08-07 20:27:00,77.0,70.7,29.82,SSW,194,6.0,17.0,81,0.00,,,0.00,meteohub,2013-08-08 00:27:00,
2013-08-07 20:32:00,76.8,70.5,29.82,South,189,3.0,15.0,81,0.00,,,0.00,meteohub,2013-08-08 00:32:00,
2013-08-07 20:37:00,76.6,70.7,29.82,South,188,11.0,15.0,82,0.00,,,0.00,meteohub,2013-08-08 00:37:00,
2013-08-07 20:42:00,76.5,70.5,29.83,South,187,11.0,16.0,82,0.00,,,0.00,meteohub,2013-08-08 00:42:00,
2013-08-07 20:47:00,76.3,70.3,29.83,SW,226,9.0,16.0,82,0.00,,,0.00,meteohub,2013-08-08 00:47:00,
2013-08-07 20:52:00,76.1,70.2,29.83,South,180,13.0,14.0,82,0.00,,,0.00,meteohub,2013-08-08 00:52:00,
2013-08-07 20:57:00,75.9,70.3,29.83,SSW,202,9.0,15.0,83,0.00,,,0.00,meteohub,2013-08-08 00:57:00,
2013-08-07 21:02:00,75.7,70.2,29.83,SSW,197,7.0,15.0,83,0.00,,,0.00,meteohub,2013-08-08 01:02:00,
2013-08-07 21:07:00,75.7,70.2,29.83,South,187,12.0,15.0,83,0.00,,,0.00,meteohub,2013-08-08 01:07:00,
2013-08-07 21:12:00,75.6,70.0,29.83,South,190,9.0,14.0,83,0.00,,,0.00,meteohub,2013-08-08 01:12:00,
2013-08-07 21:17:00,75.4,69.8,29.83,South,188,11.0,16.0,83,0.00,,,0.00,meteohub,2013-08-08 01:17:00,
2013-08-07 21:22:00,75.4,69.4,29.83,South,183,11.0,16.0,82,0.00,,,0.00,meteohub,2013-08-08 01:22:00,
2013-08-07 21:27:00,75.6,70.0,29.84,South,187,10.0,19.0,83,0.00,,,0.00,meteohub,2013-08-08 01:27:00,
2013-08-07 21:32:00,75.4,69.4,29.84,South,183,9.0,19.0,82,0.00,,,0.00,meteohub,2013-08-08 01:32:00,
2013-08-07 21:37:00,75.2,69.6,29.84,SSW,194,9.0,19.0,83,0.00,,,0.00,meteohub,2013-08-08 01:37:00,
2013-08-07 21:42:00,75.0,69.4,29.84,South,176,12.0,19.0,83,0.00,,,0.00,meteohub,2013-08-08 01:42:00,
2013-08-07 21:48:00,75.0,69.4,29.84,South,186,11.0,19.0,83,0.00,,,0.00,meteohub,2013-08-08 01:48:00,
2013-08-07 21:53:00,74.8,69.3,29.84,SSW,205,11.0,19.0,83,0.00,,,0.00,meteohub,2013-08-08 01:53:00,
2013-08-07 21:58:00,74.8,69.6,29.84,SSW,198,11.0,19.0,84,0.00,,,0.00,meteohub,2013-08-08 01:58:00,
2013-08-07 22:03:00,74.8,69.3,29.84,SSW,198,7.0,19.0,83,0.00,,,0.00,meteohub,2013-08-08 02:03:00,
2013-08-07 22:08:00,74.8,69.6,29.84,South,184,13.0,19.0,84,0.00,,,0.00,meteohub,2013-08-08 02:08:00,
2013-08-07 22:13:00,74.8,69.6,29.84,SSW,211,10.0,17.0,84,0.00,,,0.00,meteohub,2013-08-08 02:13:00,
2013-08-07 22:18:00,74.8,69.6,29.84,SSW,207,5.0,17.0,84,0.00,,,0.00,meteohub,2013-08-08 02:18:00,
2013-08-07 22:23:00,74.7,69.4,29.84,SSW,192,11.0,17.0,84,0.00,,,0.00,meteohub,2013-08-08 02:23:00,
2013-08-07 22:28:00,74.7,69.4,29.84,South,190,12.0,17.0,84,0.00,,,0.00,meteohub,2013-08-08 02:28:00,
2013-08-07 22:33:00,74.5,69.6,29.84,SSW,198,13.0,17.0,85,0.00,,,0.00,meteohub,2013-08-08 02:33:00,
2013-08-07 22:38:00,74.5,69.6,29.84,South,190,12.0,18.0,85,0.00,,,0.00,meteohub,2013-08-08 02:38:00,
2013-08-07 22:43:00,74.5,70.0,29.84,South,171,12.0,20.0,86,0.00,,,0.00,meteohub,2013-08-08 02:43:00,
2013-08-07 22:48:00,74.5,70.0,29.84,SSE,159,13.0,20.0,86,0.00,,,0.00,meteohub,2013-08-08 02:48:00,
2013-08-07 22:53:00,74.5,70.0,29.84,South,173,10.0,20.0,86,0.00,,,0.00,meteohub,2013-08-08 02:53:00,
2013-08-07 22:58:00,74.3,69.8,29.85,South,175,11.0,18.0,86,0.00,,,0.00,meteohub,2013-08-08 02:58:00,
2013-08-07 23:04:00,74.1,70.0,29.85,South,175,9.0,19.0,87,0.00,,,0.00,meteohub,2013-08-08 03:04:00,
2013-08-07 23:09:00,74.1,70.0,29.85,South,176,5.0,19.0,87,0.00,,,0.00,meteohub,2013-08-08 03:09:00,
2013-08-07 23:14:00,74.1,70.0,29.85,SSW,192,11.0,16.0,87,0.00,,,0.00,meteohub,2013-08-08 03:14:00,
2013-08-07 23:19:00,73.9,70.2,29.85,SSW,202,20.0,20.0,88,0.00,,,0.00,meteohub,2013-08-08 03:19:00,
2013-08-07 23:24:00,73.8,70.0,29.85,South,171,10.0,22.0,88,0.00,,,0.00,meteohub,2013-08-08 03:24:00,
2013-08-07 23:29:00,73.6,70.2,29.85,SSE,167,9.0,22.0,89,0.00,,,0.00,meteohub,2013-08-08 03:29:00,
2013-08-07 23:34:00,73.4,70.0,29.85,South,190,14.0,22.0,89,0.00,,,0.00,meteohub,2013-08-08 03:34:00,
2013-08-07 23:39:00,73.2,69.8,29.85,South,180,12.0,20.0,89,0.00,,,0.00,meteohub,2013-08-08 03:39:00,
2013-08-07 23:44:00,73.0,70.0,29.85,SSW,198,17.0,19.0,90,0.00,,,0.00,meteohub,2013-08-08 03:44:00,
2013-08-07 23:49:00,72.9,69.8,29.85,North,0,14.0,19.0,90,0.00,,,0.00,meteohub,2013-08-08 03:49:00,
2013-08-07 23:55:00,72.7,69.6,29.85,SSW,197,13.0,21.0,90,0.00,,,0.00,meteohub,2013-08-08 03:55:00,